Change the Weather History Date:

Monday, August 4, 2014

  Actual Average (KTVL) Record (KTVL)
Temperature  
Mean Temperature 58 °F 62 °F  
Max Temperature 66 °F 82 °F 89 °F (1932)
Min Temperature 53 °F 42 °F 32 °F (1976)
Degree Days  
Heating Degree Days 7 4  
Month to date heating degree days 16  
Since 1 June heating degree days 464  
Since 1 July heating degree days 154  
Cooling Degree Days 0 1  
Month to date cooling degree days 4  
Year to date cooling degree days 23  
Since 1 June cooling degree days 23  
Growing Degree Days 8 (Base 50)    
Moisture  
Dew Point 51 °F    
Average Humidity 83    
Maximum Humidity 93    
Minimum Humidity 60    
Precipitation  
Precipitation 0.54 in - 0.49 in (2006)
Month to date precipitation  
Year to date precipitation  
Sea Level Pressure  
Sea Level Pressure 30.07 in    
Wind  
Wind Speed 1 mph (West)    
Max Wind Speed 7 mph    
Max Gust Speed -    
Visibility 4 miles    
Events Rain    
T = Trace of Precipitation, MM = Missing Value Source: NWS Daily Summary

Daily Weather History Graph

Daily Weather History Graph

Search for Another Location

Airport or City:

Trip Planner

Search our weather history database for the weather conditions in past years. The results will help you decide how hot, cold, wet, or windy it might be!

Date:

Astronomy

Aug. 04, 2014 Rise Set
Actual Time 6:02 AM PDT 8:04 PM PDT
Civil Twilight 5:33 AM PDT 8:33 PM PDT
Nautical Twilight 4:58 AM PDT 9:09 PM PDT
Astronomical Twilight 4:19 AM PDT 9:47 PM PDT
Moon 2:22 PM PDT (8/4) 12:12 AM PDT (8/4)
Length of Visible Light 14h 59m
Length of Day
14h 01m
First Quarter, 58% of the Moon is Illuminated
Aug 4
First Quarter
Aug 10
Full
Aug 17
Last Quarter
Aug 25
New
Sep 2
First Quarter

Hourly Weather History & Observations

Time (PDT) Temp. Dew Point Humidity Pressure Visibility Wind Dir Wind Speed Gust Speed Precip Events Conditions
12:52 AM 53.1 °F 50.0 °F 89% 29.93 in - Calm Calm - N/A   Overcast
1:52 AM 54.0 °F 50.0 °F 86% 29.91 in - Calm Calm - N/A   Overcast
2:52 AM 54.0 °F 51.1 °F 90% 29.91 in - Calm Calm - N/A   Overcast
3:52 AM 54.0 °F 50.0 °F 86% 29.95 in - West 4.6 mph - 0.00 in   Overcast
4:52 AM 54.0 °F 51.1 °F 90% 29.97 in - Calm Calm - 0.01 in Rain Light Rain
5:52 AM 54.0 °F 51.1 °F 90% 29.97 in - Calm Calm - 0.01 in   Overcast
6:52 AM 54.0 °F 51.1 °F 90% 29.97 in - Calm Calm - N/A   Overcast
7:52 AM 54.0 °F 52.0 °F 93% 29.98 in - Calm Calm - N/A   Overcast
8:52 AM 57.0 °F 50.0 °F 77% 29.98 in - Calm Calm - N/A   Overcast
9:52 AM 57.0 °F 51.1 °F 81% 29.97 in - Calm Calm - N/A   Overcast
10:52 AM 60.1 °F 48.9 °F 67% 29.96 in - Calm Calm - N/A   Overcast
11:02 AM 60.1 °F 48.9 °F 67% 30.21 in 5.0 mi Calm Calm - N/A   Haze
11:52 AM 61.0 °F 48.0 °F 62% 29.96 in 5.0 mi Calm Calm - N/A   Haze
12:52 PM 63.0 °F 48.9 °F 60% 29.95 in 5.0 mi SSE 3.5 mph - N/A   Haze
2:21 PM 62.1 °F 51.1 °F 67% 30.20 in 2.0 mi West 4.6 mph - 0.00 in Rain Light Rain
2:52 PM 60.1 °F 51.1 °F 72% 29.96 in 2.0 mi Calm Calm - 0.04 in   Overcast
2:59 PM 60.1 °F 52.0 °F 75% 30.21 in - SW 6.9 mph - 0.00 in Rain Light Rain
3:52 PM 57.9 °F 52.0 °F 81% 29.98 in - Calm Calm - 0.13 in Rain Rain
4:35 PM 57.0 °F 52.0 °F 83% 30.21 in - Calm Calm - 0.05 in Rain Rain
4:52 PM 57.0 °F 52.0 °F 83% 29.98 in - Calm Calm - 0.09 in Rain Light Rain
5:19 PM 57.0 °F 51.1 °F 81% 30.21 in - Calm Calm - 0.02 in Rain Light Rain
5:52 PM 55.9 °F 52.0 °F 87% 29.99 in - Calm Calm - 0.06 in Rain Light Rain
6:52 PM 57.0 °F 51.1 °F 81% 29.98 in - Calm Calm - 0.01 in   Overcast
7:08 PM 57.0 °F 52.0 °F 83% 30.22 in - Calm Calm - N/A   Overcast
7:34 PM 57.0 °F 52.0 °F 83% 30.22 in - Calm Calm - N/A   Overcast
7:48 PM 57.0 °F 52.0 °F 83% 29.99 in - North 4.6 mph - 0.01 in Rain Light Rain
8:09 PM 55.9 °F 52.0 °F 87% 30.22 in - NNW 3.5 mph - 0.10 in Rain Rain
8:18 PM 55.9 °F 52.0 °F 87% 30.22 in - Calm Calm - 0.13 in Rain Light Rain
8:30 PM 55.9 °F 52.0 °F 87% 30.22 in - Calm Calm - 0.14 in Rain Light Rain
8:52 PM 55.9 °F 52.0 °F 87% 29.98 in - Calm Calm - 0.15 in Rain Light Rain
9:40 PM 55.0 °F 52.0 °F 89% 30.23 in - Calm Calm - 0.02 in Rain Light Rain
9:52 PM 55.0 °F 52.0 °F 89% 29.99 in - Calm Calm - 0.02 in Rain Light Rain
9:58 PM 55.0 °F 52.0 °F 89% 30.23 in - Calm Calm - 0.00 in Rain Light Rain
10:10 PM 55.0 °F 52.0 °F 89% 30.23 in - Calm Calm - 0.00 in   Overcast
10:32 PM 55.0 °F 52.0 °F 89% 30.23 in - Calm Calm - 0.00 in Rain Light Rain
10:41 PM 55.0 °F 52.0 °F 89% 30.23 in - Calm Calm - 0.00 in   Overcast
10:52 PM 55.0 °F 52.0 °F 89% 29.98 in - Calm Calm - 0.01 in Rain Light Rain
11:02 PM 55.0 °F 51.1 °F 86% 30.23 in - Calm Calm - 0.00 in   Overcast
11:12 PM 55.0 °F 52.0 °F 89% 30.23 in - Calm Calm - 0.00 in   Overcast
11:52 PM 55.0 °F 52.0 °F 89% 29.98 in - Calm Calm - 0.00 in   Overcast